Terminal Aerodrome Forecast
Issued by NWS Sioux Falls, SD

Home | Current Version | Previous Version | Text Only | Print | Product List | Glossary Off
Versions: 1 2 3 4 5 6 7 8 9 10 11 12 13 14 15 16 17 18 19 20 21 22

000
FTUS43 KFSD 151139
TAFFSD
TAF
KFSD 151139Z 1512/1612 01015G22KT 5SM -RA BR OVC005
     FM151600 36019G27KT 4SM RA BR OVC006
      TEMPO 1517/1519 2SM FZRAPL OVC008
     FM151900 35023G32KT 1SM -SN OVC010
      TEMPO 1519/1522 1/2SM SN VV007
     FM160300 34022G30KT 4SM -SN OVC015
     FM160500 34017G24KT P6SM OVC015=

USA.gov is the U.S. government's official web portal to all federal, state and local government web resources and services.